Weather in derevnya Pes'

Russia / Novgorod Oblast     58°55′04″N   34°10′07″E
temp.,
°C
wind,
m/s
gust,
m/s
humid.,
%
clouds,
%
prec.,
mm/h
press.,
hPa
HPBL,
m
29 june, wed
wed2900:00+11e210610 0.0 1025197
03:00+9ese24740 0.0 102677
06:00+11ese25670 0.0 1025158
09:00+18ese33420 0.0 1024845
12:00+21ese23300 0.0 10231499
15:00+23ese22260 0.0 10221902
18:00+23ese21280 0.0 10211864
21:00+16se1156100 0.0 102111
30 june, thu
thu3000:00+12se11675 0.0 102110
03:00+11s11735 0.0 102210
06:00+14ne00645 0.0 102245
09:00+21n1239100 0.0 1021666
12:00+24nne232917 0.0 10211695
15:00+26ne342295 0.0 10201978
18:00+25ne23265 0.0 10201941
21:00+19nne22575 0.0 102125
1 july, fri
fri100:00+15ne22685 0.0 102213
03:00+14n11723 0.0 102211
06:00+17nne12660 0.0 102266
09:00+23nnw23435 0.0 1022635
12:00+27n35375 0.0 10222075
15:00+29n34324 0.0 10202548
18:00+29n333311 0.0 10192494
21:00+22nnw256154 0.0 102092
2 july, sat
sat200:00+18n24715 0.0 102171
03:00+17nnw226969 0.0 102121
06:00+18nw2665100 0.0 1021142
09:00+25nw353981 0.0 1020539
12:00+29nnw3329100 0.0 10191605
15:00+30nw3426100 0.0 10182447
18:00+28nw4637100 0.0 10181052
21:00+21nnw2563100 0.0 101883
3 july, sun
sun300:00+18nnw226799 0.0 101827
03:00+17n116399 0.0 101811
06:00+19nw1161100 0.0 101841
09:00+25nnw1242100 0.0 1018456
12:00+28wnw2235100 0.0 10171514
15:00+29wsw333496 0.0 10172341
18:00+28w233899 0.0 10162133
21:00+20w3680100 0.4 1017154